Location: Overspoor
(51.4747°N, 5.6641°E)
Time: 19:33:31
(UTC+02:00)

KKS-1 - Pass Details

Date: 01 July 2022
Orbit: 634 x 649 km, 98.2° (Epoch: 18 August)

Event Time Altitude Azimuth Distance (km) Brightness Sun altitude
Rises 00:55:07 0° 6° (N) 2,982 ? -14.7°
Reaches altitude 10° 00:57:35 10° 355° (N) 2,065 ? -14.8°
Maximum altitude 01:01:22 27° 298° (WNW) 1,243 ? -14.9°
Drops below altitude 10° 01:05:07 10° 240° (WSW) 2,048 ? -15.0°
Enters shadow 01:06:37 - 232° (SW) 2,591 ? -15.0°
